Hourly Data Report for October 29, 2014

All times are specified in Local Standard Time (LST). Add 1 hour to adjust for Daylight Saving Time where and when it is observed.

PENTICTON A
BRITISH COLUMBIA

49°27'45.000" N
119°36'08.000" W
344.40 m
1126146
71889
YYF

Download Data

Hourly Data (October 2014)
Hourly Data Report for October 29, 2014
Temp Definition
°C
Dew Point Temp Definition
°C
Rel Hum Definition
%
Wind Dir Definition
10's deg

Wind Spd Definition
km/h
Visibility Definition
km
Stn Press Definition
kPa
Hmdx Definition


Wind Chill Definition


Weather Definition


TIME
00:00 Legend Double Dagger 9.5 5.5 76 17 23 24.1 97.35     LegendNANA
01:00 Legend Double Dagger 9.8 6.2 78 16 16 24.1 97.39     Mostly Cloudy
02:00 Legend Double Dagger 9.7 6.3 79 14 22 24.1 97.40     LegendNANA
03:00 Legend Double Dagger 9.9 6.3 78 16 19 24.1 97.43     LegendNANA
04:00 Legend Double Dagger 9.9 6.5 79 15 21 24.1 97.48     Mostly Cloudy
05:00 Legend Double Dagger 9.9 6.6 80 17 22 24.1 97.53     LegendNANA
06:00 Legend Double Dagger 10.1 6.7 79 17 18 24.1 97.60     LegendNANA
07:00 Legend Double Dagger 10.2 6.9 80 16 23 24.1 97.65     Cloudy
08:00 Legend Double Dagger 10.4 7.1 80 15 24 24.1 97.73     LegendNANA
09:00 Legend Double Dagger 10.9 7.4 79 15 15 24.1 97.80     LegendNANA
10:00 Legend Double Dagger 11.6 7.6 76 16 25 24.1 97.85     Mostly Cloudy
11:00 Legend Double Dagger 13.4 7.2 66 18 27 24.1 97.89     LegendNANA
12:00 Legend Double Dagger 12.2 6.5 68 17 31 24.1 97.91     LegendNANA
13:00 Legend Double Dagger 12.1 6.4 68 17 34 24.1 97.92     Mostly Cloudy
14:00 Legend Double Dagger 12.1 6.4 68 17 26 24.1 97.96     LegendNANA
15:00 Legend Double Dagger 12.0 6.3 68 16 21 24.1 97.95     LegendNANA
16:00 Legend Double Dagger 12.1 6.4 68 17 23 24.1 97.97     Mostly Cloudy
17:00 Legend Double Dagger 11.4 6.4 71 18 23 24.1 97.97     LegendNANA
18:00 Legend Double Dagger 11.4 6.6 72 18 21 24.1 98.02     LegendNANA
19:00 Legend Double Dagger 11.4 6.6 72 19 16 24.1 98.03     Mostly Cloudy
20:00 Legend Double Dagger 11.6 6.8 72 16 9 24.1 98.04     LegendNANA
21:00 Legend Double Dagger 11.6 6.6 71 18 12 24.1 98.04     LegendNANA
22:00 Legend Double Dagger 11.4 6.4 71 13 9 24.1 98.06     Cloudy
23:00 Legend Double Dagger 11.4 6.6 72 16 12 24.1 98.03     LegendNANA

Notes on Data Quality.

Legend

  • E = Estimated
  • M = Missing
  • NA = Not Available
  • ‡ = Partner data that is not subject to review by the National Climate Archives
Date modified: